Regional Weather Roundup
Issued by NWS

Home | Current Version | Previous Version | Graphics & Text | Print | Product List | Glossary On
Versions: 1 2 3 4 5 6 7 8 9 10 11 12 13 14 15 16 17 18 19 20 21 22 23 24 25 26 27
000
ASUS45 KSLC 021610
RWRUT

UTAH REGIONAL WEATHER ROUNDUP
NATIONAL WEATHER SERVICE SALT LAKE CITY UT
1000 AM MDT MON MAY 02 2016

UTZ001>011-023>025-021700-

NORTHERN UTAH

CITY           SKY/WX    TMP DP  RH WIND       PRES   REMARKS
BRIGHAM CITY   SUNNY     54  26  34 CALM      30.23S
HILL AFB       SUNNY     53  29  39 E18G24    30.22R
LOGAN          SUNNY     51  28  41 NE3       30.25S
OGDEN          SUNNY     56  26  31 NE9       30.22R
PROVO AIRPORT  MOSUNNY   54  32  43 VRB5      30.22R
SALT LAKE CITY MOSUNNY   58  30  34 VRB6      30.21S
VERNAL         SUNNY     49  25  39 CALM      30.27S
WENDOVER       SUNNY     54  32  43 S5        30.23R
HEBER CITY     SUNNY     45  28  53 CALM      30.27S

$$

UTZ012>022-026-027-021700-

SOUTHERN/CENTRAL UTAH

CITY           SKY/WX    TMP DP  RH WIND       PRES   REMARKS
BLANDING       CLOUDY    43  37  79 S3        30.36R
BRYCE CANYON   SUNNY     42  32  67 NE3       30.27S
CEDAR CITY     MOSUNNY   53  36  52 NW5       30.21R
DELTA          PTSUNNY   54  34  47 S6        30.22R
HANKSVILLE     PTSUNNY   54  39  58 CALM      30.25S
MILFORD        CLOUDY    54  34  46 N9        30.21R
MOAB/CYNLANDS  PTSUNNY   55  38  52 E8        30.22S
PRICE          PTSUNNY   49  35  58 S3        30.26R
ST GEORGE      SUNNY     61  41  48 CALM      30.19S
KANAB          SUNNY     55  39  54 E14G23    30.26

$$

REGIONAL REPORTS     COLORADO/ARIZONA

CITY           SKY/WX    TMP DP  RH WIND       PRES   REMARKS
CRAIG, CO      SUNNY     44  26  49 VRB6      30.28F
GRAND JUNCTION SUNNY     52  39  61 S5        30.24R
RIFLE          CLOUDY    50  39  66 CALM      30.26S
MONTROSE       CLOUDY    47  39  74 CALM      30.29R
CORTEZ         SUNNY     48  34  58 VRB3      30.27S
PAGE, AZ       CLOUDY    54  41  61 N5        30.23R
GRAND CANYON   MOSUNNY   47  36  65 NE15      30.25R
KINGMAN        SUNNY     63  42  46 NW8       30.13R
FLAGSTAFF      CLOUDY    39  37  92 E9        30.25R WCI  33

$$

REGIONAL REPORTS    NEVADA/IDAHO/WYOMING

CITY           SKY/WX    TMP DP  RH WIND       PRES   REMARKS
LAS VEGAS, NV  MOSUNNY   68  40  35 NE12G17   30.08R
ELY            CLOUDY    44  30  57 CALM      30.24R
ELKO           SUNNY     50  30  46 E5        30.21S
POCATELLO, ID  SUNNY     54  26  34 E6        30.25S
BURLEY         SUNNY     53  36  52 N5        30.21R
EVANSTON, WY   SUNNY     41  20  43 E8        30.30S
ROCK SPRINGS   SUNNY     39  23  52 CALM      30.31R
KEMMERER       SUNNY     41  23  48 E9        30.31S

$$




USA.gov is the U.S. government's official web portal to all federal, state and local government web resources and services.